Location: Alladorf
(49.9620°N, 11.3790°E)
Time: 20:53:05
(UTC+00:00)

SJ-12 - Pass Details

Date: 29 November 2020
Orbit: 569 x 584 km, 97.7° (Epoch: 24 January)

Event Time Altitude Azimuth Distance (km) Brightness Sun altitude
Rises 04:14:45 0° 16° (NNE) 2,788 7.5 -23.9°
Reaches altitude 10° 04:16:56 10° 19° (NNE) 1,884 6.7 -23.6°
Maximum altitude 04:20:58 63° 101° (E) 643 4.3 -22.9°
Drops below altitude 10° 04:24:59 10° 183° (S) 1,869 6.6 -22.3°
Sets 04:27:08 0° 187° (S) 2,762 7.4 -22.0°
